Time,TemperatureF,DewpointF,PressureIn,WindDirection,WindDirectionDegrees,WindSpeedMPH,WindSpeedGustMPH,Humidity,HourlyPrecipIn,Conditions,Clouds,dailyrainin,SoftwareType,DateUTC
2012-07-01 07:14:00,53.6,37.4,29.72,WSW,248,0.0,2.0,54,0.00,,---,0.00,VWS V14.01,2012-07-01 13:14:00,
2012-07-01 07:19:00,55.2,38.4,29.72,WSW,248,0.0,0.0,53,0.00,,---,0.00,VWS V14.01,2012-07-01 13:19:00,
2012-07-01 07:24:00,55.8,38.5,29.70,WSW,248,0.0,0.0,52,0.00,,---,0.00,VWS V14.01,2012-07-01 13:24:00,
2012-07-01 07:29:00,56.9,39.0,29.70,WSW,248,0.0,0.0,51,0.00,,---,0.00,VWS V14.01,2012-07-01 13:29:00,
2012-07-01 07:34:00,58.5,39.9,29.69,WSW,248,0.0,0.0,50,0.00,,---,0.00,VWS V14.01,2012-07-01 13:34:00,
2012-07-01 07:39:00,59.9,40.2,29.67,WSW,248,0.0,0.0,48,0.00,,---,0.00,VWS V14.01,2012-07-01 13:39:00,
2012-07-01 07:44:00,60.9,40.5,29.67,WSW,248,0.0,0.0,47,0.00,,---,0.00,VWS V14.01,2012-07-01 13:44:00,
2012-07-01 07:49:00,61.7,40.2,29.66,WSW,248,0.0,0.0,45,0.00,,---,0.00,VWS V14.01,2012-07-01 13:49:00,
2012-07-01 07:54:00,62.5,40.9,29.65,WSW,248,0.0,1.0,45,0.00,,---,0.00,VWS V14.01,2012-07-01 13:54:00,
2012-07-01 07:59:00,63.0,41.3,29.66,WSW,248,0.0,1.0,45,0.00,,---,0.00,VWS V14.01,2012-07-01 13:59:00,
2012-07-01 08:05:00,63.5,41.8,29.72,WSW,248,4.0,4.0,45,0.00,,---,0.00,VWS V14.01,2012-07-01 14:05:00,
2012-07-01 08:10:00,63.7,42.5,29.72,WSW,248,0.0,1.0,46,0.00,,---,0.00,VWS V14.01,2012-07-01 14:10:00,
2012-07-01 08:15:00,64.0,42.8,29.72,WSW,248,0.0,1.0,46,0.00,,---,0.00,VWS V14.01,2012-07-01 14:15:00,
2012-07-01 08:20:00,64.5,44.4,29.71,WSW,248,0.0,4.0,48,0.00,,---,0.00,VWS V14.01,2012-07-01 14:20:00,
2012-07-01 08:25:00,64.8,44.1,29.71,WSW,248,0.0,4.0,47,0.00,,---,0.00,VWS V14.01,2012-07-01 14:25:00,
2012-07-01 08:30:00,65.2,43.3,29.72,WSW,248,4.0,4.0,45,0.00,,---,0.00,VWS V14.01,2012-07-01 14:30:00,
2012-07-01 08:35:00,65.4,43.5,29.71,WSW,248,1.0,3.0,45,0.00,,---,0.00,VWS V14.01,2012-07-01 14:35:00,
2012-07-01 08:40:00,65.8,43.3,29.70,WSW,248,0.0,1.0,44,0.00,,---,0.00,VWS V14.01,2012-07-01 14:40:00,
2012-07-01 08:45:00,66.3,44.3,29.69,WSW,249,0.0,5.0,45,0.00,,---,0.00,VWS V14.01,2012-07-01 14:45:00,
2012-07-01 08:50:00,66.6,44.6,29.69,WSW,250,1.0,5.0,45,0.00,,---,0.00,VWS V14.01,2012-07-01 14:50:00,
2012-07-01 08:55:00,66.7,44.1,29.69,WSW,250,1.0,5.0,44,0.00,,---,0.00,VWS V14.01,2012-07-01 14:55:00,
2012-07-01 09:00:00,67.2,44.6,29.69,WSW,250,0.0,2.0,44,0.00,,---,0.00,VWS V14.01,2012-07-01 15:00:00,
2012-07-01 09:05:00,67.7,44.4,29.70,WSW,250,1.0,5.0,43,0.00,,---,0.00,VWS V14.01,2012-07-01 15:05:00,
2012-07-01 09:10:00,68.3,44.3,29.70,WSW,249,4.0,5.0,42,0.00,,---,0.00,VWS V14.01,2012-07-01 15:10:00,
2012-07-01 09:15:00,68.7,44.7,29.70,WSW,250,2.0,4.0,42,0.00,,---,0.00,VWS V14.01,2012-07-01 15:15:00,
2012-07-01 09:20:00,69.1,44.4,29.70,WSW,250,0.0,2.0,41,0.00,,---,0.00,VWS V14.01,2012-07-01 15:20:00,
2012-07-01 09:25:00,69.8,44.4,29.68,WSW,250,1.0,4.0,40,0.00,,---,0.00,VWS V14.01,2012-07-01 15:25:00,
2012-07-01 09:30:00,70.1,44.0,29.68,WSW,250,0.0,4.0,39,0.00,,---,0.00,VWS V14.01,2012-07-01 15:30:00,
2012-07-01 09:35:00,70.8,44.6,29.67,WSW,249,0.0,6.0,39,0.00,,---,0.00,VWS V14.01,2012-07-01 15:35:00,
2012-07-01 09:40:00,71.2,43.6,29.69,WSW,250,1.0,5.0,37,0.00,,---,0.00,VWS V14.01,2012-07-01 15:40:00,
2012-07-01 09:45:00,71.3,43.7,29.68,WSW,250,1.0,5.0,37,0.00,,---,0.00,VWS V14.01,2012-07-01 15:45:00,
2012-07-01 09:50:00,71.8,44.2,29.66,WSW,249,0.0,4.0,37,0.00,,---,0.00,VWS V14.01,2012-07-01 15:50:00,
2012-07-01 09:55:00,72.4,44.0,29.66,WSW,250,0.0,2.0,36,0.00,,---,0.00,VWS V14.01,2012-07-01 15:55:00,
2012-07-01 10:00:00,72.6,44.1,29.66,WSW,249,1.0,5.0,36,0.00,,---,0.00,VWS V14.01,2012-07-01 16:00:00,
2012-07-01 10:05:00,73.1,44.6,29.65,WSW,250,1.0,5.0,36,0.00,,---,0.00,VWS V14.01,2012-07-01 16:05:00,
2012-07-01 10:10:00,73.6,44.3,29.65,WSW,249,0.0,2.0,35,0.00,,---,0.00,VWS V14.01,2012-07-01 16:10:00,
2012-07-01 10:15:00,74.0,43.9,29.65,WSW,250,1.0,3.0,34,0.00,,---,0.00,VWS V14.01,2012-07-01 16:15:00,
2012-07-01 10:20:00,74.0,43.9,29.66,WSW,244,4.0,7.0,34,0.00,,---,0.00,VWS V14.01,2012-07-01 16:20:00,
2012-07-01 10:25:00,73.6,44.3,29.66,WSW,244,4.0,5.0,35,0.00,,---,0.00,VWS V14.01,2012-07-01 16:25:00,
2012-07-01 10:30:00,73.9,43.8,29.66,WSW,244,0.0,2.0,34,0.00,,---,0.00,VWS V14.01,2012-07-01 16:30:00,
2012-07-01 10:35:00,75.0,44.0,29.64,WSW,244,0.0,1.0,33,0.00,,---,0.00,VWS V14.01,2012-07-01 16:35:00,
2012-07-01 10:40:00,76.6,43.7,29.62,WSW,247,0.0,6.0,31,0.00,,---,0.00,VWS V14.01,2012-07-01 16:40:00,
2012-07-01 10:45:00,77.8,44.8,29.62,WSW,246,0.0,1.0,31,0.00,,---,0.00,VWS V14.01,2012-07-01 16:45:00,
2012-07-01 10:50:00,78.2,45.1,29.61,WSW,247,1.0,2.0,31,0.00,,---,0.00,VWS V14.01,2012-07-01 16:50:00,
2012-07-01 10:55:00,78.3,44.3,29.62,WSW,247,0.0,1.0,30,0.00,,---,0.00,VWS V14.01,2012-07-01 16:55:00,
2012-07-01 11:00:00,79.9,44.8,29.59,WSW,247,0.0,2.0,29,0.00,,---,0.00,VWS V14.01,2012-07-01 17:00:00,
2012-07-01 11:05:00,80.8,44.7,29.59,WSW,247,1.0,5.0,28,0.00,,---,0.00,VWS V14.01,2012-07-01 17:05:00,
2012-07-01 11:10:00,81.2,45.0,29.59,WSW,247,0.0,5.0,28,0.00,,---,0.00,VWS V14.01,2012-07-01 17:10:00,
2012-07-01 11:15:00,81.7,44.5,29.59,WSW,247,0.0,2.0,27,0.00,,---,0.00,VWS V14.01,2012-07-01 17:15:00,
2012-07-01 11:20:00,82.1,43.8,29.59,WSW,247,0.0,2.0,26,0.00,,---,0.00,VWS V14.01,2012-07-01 17:20:00,
2012-07-01 11:25:00,81.4,43.3,29.60,WSW,247,1.0,4.0,26,0.00,,---,0.00,VWS V14.01,2012-07-01 17:25:00,
2012-07-01 11:30:00,81.4,43.3,29.59,WSW,247,4.0,4.0,26,0.00,,---,0.00,VWS V14.01,2012-07-01 17:30:00,
2012-07-01 11:35:00,82.3,43.0,29.59,WSW,247,0.0,3.0,25,0.00,,---,0.00,VWS V14.01,2012-07-01 17:35:00,
2012-07-01 11:40:00,83.7,42.0,29.58,WSW,240,2.0,7.0,23,0.00,,---,0.00,VWS V14.01,2012-07-01 17:40:00,
2012-07-01 11:46:00,83.6,40.8,29.57,WSW,240,0.0,5.0,22,0.00,,---,0.00,VWS V14.01,2012-07-01 17:46:00,
2012-07-01 11:51:00,83.9,41.0,29.57,WSW,240,6.0,6.0,22,0.00,,---,0.00,VWS V14.01,2012-07-01 17:51:00,
2012-07-01 11:56:00,83.3,40.5,29.57,WSW,244,2.0,5.0,22,0.00,,---,0.00,VWS V14.01,2012-07-01 17:56:00,
2012-07-01 12:01:00,83.5,40.7,29.57,WSW,248,4.0,6.0,22,0.00,,---,0.00,VWS V14.01,2012-07-01 18:01:00,
2012-07-01 12:06:00,84.5,41.5,29.56,WSW,248,3.0,3.0,22,0.00,,---,0.00,VWS V14.01,2012-07-01 18:06:00,
2012-07-01 12:11:00,86.5,40.7,29.55,WSW,248,2.0,2.0,20,0.00,,---,0.00,VWS V14.01,2012-07-01 18:11:00,
2012-07-01 12:16:00,86.8,41.0,29.53,WSW,250,7.0,9.0,20,0.00,,---,0.00,VWS V14.01,2012-07-01 18:16:00,
2012-07-01 12:21:00,85.5,37.2,29.55,West,276,2.0,7.0,18,0.00,,---,0.00,VWS V14.01,2012-07-01 18:21:00,
2012-07-01 12:26:00,85.1,38.2,29.55,West,271,5.0,8.0,19,0.00,,---,0.00,VWS V14.01,2012-07-01 18:26:00,
2012-07-01 12:31:00,84.5,40.3,29.54,ENE,76,0.0,10.0,21,0.00,,---,0.00,VWS V14.01,2012-07-01 18:31:00,
2012-07-01 12:36:00,84.9,39.4,29.54,SW,223,2.0,8.0,20,0.00,,---,0.00,VWS V14.01,2012-07-01 18:36:00,
2012-07-01 12:41:00,84.4,36.3,29.54,SSW,192,7.0,11.0,18,0.00,,---,0.00,VWS V14.01,2012-07-01 18:41:00,
2012-07-01 12:46:00,83.7,35.7,29.56,SSW,192,1.0,16.0,18,0.00,,---,0.00,VWS V14.01,2012-07-01 18:46:00,
2012-07-01 12:51:00,83.8,34.4,29.57,SSW,211,8.0,9.0,17,0.00,,---,0.00,VWS V14.01,2012-07-01 18:51:00,
2012-07-01 12:56:00,84.0,34.5,29.56,SW,236,0.0,15.0,17,0.00,,---,0.00,VWS V14.01,2012-07-01 18:56:00,
2012-07-01 13:01:00,85.3,37.0,29.55,North,360,6.0,11.0,18,0.00,,---,0.00,VWS V14.01,2012-07-01 19:01:00,
2012-07-01 13:06:00,84.5,36.4,29.58,North,11,16.0,20.0,18,0.00,,---,0.00,VWS V14.01,2012-07-01 19:06:00,
2012-07-01 13:11:00,83.6,34.2,29.58,NNW,331,10.0,16.0,17,0.00,,---,0.00,VWS V14.01,2012-07-01 19:11:00,
2012-07-01 13:16:00,83.9,34.5,29.57,West,273,3.0,9.0,17,0.00,,---,0.00,VWS V14.01,2012-07-01 19:16:00,
2012-07-01 13:21:00,83.6,35.7,29.56,WNW,284,7.0,7.0,18,0.00,,---,0.00,VWS V14.01,2012-07-01 19:21:00,
2012-07-01 13:26:00,83.6,34.2,29.56,WNW,286,0.0,5.0,17,0.00,,---,0.00,VWS V14.01,2012-07-01 19:26:00,
2012-07-01 13:31:00,84.5,36.4,29.56,North,11,1.0,6.0,18,0.00,,---,0.00,VWS V14.01,2012-07-01 19:31:00,
2012-07-01 13:36:00,86.3,37.8,29.54,NE,48,0.0,9.0,18,0.00,,---,0.00,VWS V14.01,2012-07-01 19:36:00,
2012-07-01 13:41:00,87.0,38.4,29.53,WSW,244,6.0,9.0,18,0.00,,---,0.00,VWS V14.01,2012-07-01 19:41:00,
2012-07-01 13:46:00,87.2,38.6,29.53,West,264,0.0,4.0,18,0.00,,---,0.00,VWS V14.01,2012-07-01 19:46:00,
2012-07-01 13:51:00,88.3,38.0,29.51,NW,304,6.0,8.0,17,0.00,,---,0.00,VWS V14.01,2012-07-01 19:51:00,
2012-07-01 13:56:00,87.0,38.4,29.53,WNW,294,3.0,8.0,18,0.00,,---,0.00,VWS V14.01,2012-07-01 19:56:00,
2012-07-01 14:01:00,86.3,36.4,29.52,West,264,2.0,13.0,17,0.00,,---,0.00,VWS V14.01,2012-07-01 20:01:00,
2012-07-01 14:06:00,86.4,37.9,29.52,SSW,196,1.0,9.0,18,0.00,,---,0.00,VWS V14.01,2012-07-01 20:06:00,
2012-07-01 14:11:00,87.3,37.2,29.50,SSW,196,0.0,4.0,17,0.00,,---,0.00,VWS V14.01,2012-07-01 20:11:00,
2012-07-01 14:16:00,87.9,36.2,29.50,East,98,2.0,8.0,16,0.00,,---,0.00,VWS V14.01,2012-07-01 20:16:00,
2012-07-01 14:21:00,88.4,36.5,29.50,SE,145,2.0,4.0,16,0.00,,---,0.00,VWS V14.01,2012-07-01 20:21:00,
2012-07-01 14:26:00,89.1,37.1,29.48,South,181,3.0,9.0,16,0.00,,---,0.00,VWS V14.01,2012-07-01 20:26:00,
2012-07-01 14:31:00,88.4,36.5,29.50,West,259,7.0,12.0,16,0.00,,---,0.00,VWS V14.01,2012-07-01 20:31:00,
2012-07-01 14:36:00,87.5,35.8,29.50,SW,236,5.0,13.0,16,0.00,,---,0.00,VWS V14.01,2012-07-01 20:36:00,
2012-07-01 14:41:00,88.0,36.2,29.50,WSW,238,4.0,10.0,16,0.00,,---,0.00,VWS V14.01,2012-07-01 20:41:00,
2012-07-01 14:46:00,87.1,33.9,29.50,WSW,248,3.0,9.0,15,0.00,,---,0.00,VWS V14.01,2012-07-01 20:46:00,
2012-07-01 14:51:00,86.0,34.6,29.52,WSW,257,5.0,10.0,16,0.00,,---,0.00,VWS V14.01,2012-07-01 20:51:00,
2012-07-01 14:56:00,85.6,35.8,29.52,WSW,257,4.0,7.0,17,0.00,,---,0.00,VWS V14.01,2012-07-01 20:56:00,
2012-07-01 15:01:00,85.3,34.1,29.52,WSW,256,0.0,9.0,16,0.00,,---,0.00,VWS V14.01,2012-07-01 21:01:00,
2012-07-01 15:06:00,85.8,34.5,29.57,WSW,257,0.0,5.0,16,0.00,,---,0.00,VWS V14.01,2012-07-01 21:06:00,
2012-07-01 15:11:00,85.7,37.4,29.56,NW,306,18.0,18.0,18,0.00,,---,0.00,VWS V14.01,2012-07-01 21:11:00,
2012-07-01 15:17:00,85.7,35.9,29.56,NNW,342,8.0,13.0,17,0.00,,---,0.00,VWS V14.01,2012-07-01 21:17:00,
2012-07-01 15:22:00,85.3,35.6,29.56,NE,50,7.0,13.0,17,0.00,,---,0.00,VWS V14.01,2012-07-01 21:22:00,
2012-07-01 15:27:00,85.1,35.4,29.56,NE,53,4.0,10.0,17,0.00,,---,0.00,VWS V14.01,2012-07-01 21:27:00,
2012-07-01 15:32:00,85.0,35.3,29.55,NE,53,0.0,6.0,17,0.00,,---,0.00,VWS V14.01,2012-07-01 21:32:00,
2012-07-01 15:37:00,85.3,35.6,29.55,NE,52,1.0,5.0,17,0.00,,---,0.00,VWS V14.01,2012-07-01 21:37:00,
2012-07-01 15:42:00,85.6,37.3,29.55,NNW,340,1.0,11.0,18,0.00,,---,0.00,VWS V14.01,2012-07-01 21:42:00,
2012-07-01 15:47:00,85.8,38.8,29.55,North,349,5.0,8.0,19,0.00,,---,0.00,VWS V14.01,2012-07-01 21:47:00,
2012-07-01 15:52:00,86.5,38.0,29.53,NE,50,1.0,15.0,18,0.00,,---,0.00,VWS V14.01,2012-07-01 21:52:00,
2012-07-01 15:57:00,87.1,39.9,29.52,ENE,69,6.0,8.0,19,0.00,,---,0.00,VWS V14.01,2012-07-01 21:57:00,
2012-07-01 16:02:00,86.7,38.2,29.52,ENE,64,5.0,14.0,18,0.00,,---,0.00,VWS V14.01,2012-07-01 22:02:00,
2012-07-01 16:07:00,85.6,38.7,29.54,ENE,64,4.0,11.0,19,0.00,,---,0.00,VWS V14.01,2012-07-01 22:07:00,
2012-07-01 16:12:00,85.3,37.0,29.55,ENE,62,5.0,6.0,18,0.00,,---,0.00,VWS V14.01,2012-07-01 22:12:00,
2012-07-01 16:17:00,85.5,37.2,29.55,NE,49,1.0,9.0,18,0.00,,---,0.00,VWS V14.01,2012-07-01 22:17:00,
2012-07-01 16:22:00,85.9,36.1,29.53,NE,35,0.0,6.0,17,0.00,,---,0.00,VWS V14.01,2012-07-01 22:22:00,
2012-07-01 16:27:00,85.7,37.4,29.53,NE,35,0.0,5.0,18,0.00,,---,0.00,VWS V14.01,2012-07-01 22:27:00,
2012-07-01 16:32:00,85.6,40.0,29.53,NE,34,1.0,4.0,20,0.00,,---,0.00,VWS V14.01,2012-07-01 22:32:00,
2012-07-01 16:37:00,85.0,39.5,29.55,NE,38,2.0,6.0,20,0.00,,---,0.00,VWS V14.01,2012-07-01 22:37:00,
2012-07-01 16:42:00,84.5,39.1,29.55,NE,38,0.0,6.0,20,0.00,,---,0.00,VWS V14.01,2012-07-01 22:42:00,
2012-07-01 16:47:00,84.7,39.2,29.56,NNE,14,6.0,6.0,20,0.00,,---,0.00,VWS V14.01,2012-07-01 22:47:00,
2012-07-01 16:52:00,84.3,38.9,29.55,West,263,5.0,9.0,20,0.00,,---,0.00,VWS V14.01,2012-07-01 22:52:00,
2012-07-01 16:57:00,84.4,40.2,29.55,West,259,5.0,9.0,21,0.00,,---,0.00,VWS V14.01,2012-07-01 22:57:00,
2012-07-01 17:02:00,84.9,38.1,29.54,West,276,4.0,9.0,19,0.00,,---,0.00,VWS V14.01,2012-07-01 23:02:00,
2012-07-01 17:07:00,84.7,36.5,29.56,West,269,6.0,6.0,18,0.00,,---,0.00,VWS V14.01,2012-07-01 23:07:00,
2012-07-01 17:12:00,84.9,38.1,29.56,SW,218,6.0,6.0,19,0.00,,---,0.00,VWS V14.01,2012-07-01 23:12:00,
2012-07-01 17:17:00,85.2,39.7,29.55,SSW,211,0.0,0.0,20,0.00,,---,0.00,VWS V14.01,2012-07-01 23:17:00,
2012-07-01 17:22:00,86.0,39.0,29.55,SSW,211,3.0,10.0,19,0.00,,---,0.00,VWS V14.01,2012-07-01 23:22:00,
2012-07-01 17:27:00,86.1,39.1,29.54,SSW,211,4.0,8.0,19,0.00,,---,0.00,VWS V14.01,2012-07-01 23:27:00,
2012-07-01 17:32:00,86.0,39.0,29.54,SSW,210,0.0,1.0,19,0.00,,---,0.00,VWS V14.01,2012-07-01 23:32:00,
2012-07-01 17:37:00,86.1,39.1,29.54,SSW,200,8.0,10.0,19,0.00,,---,0.00,VWS V14.01,2012-07-01 23:37:00,
2012-07-01 17:42:00,85.6,40.0,29.54,SSW,202,6.0,6.0,20,0.00,,---,0.00,VWS V14.01,2012-07-01 23:42:00,
2012-07-01 17:47:00,85.4,39.8,29.53,SSW,201,5.0,6.0,20,0.00,,---,0.00,VWS V14.01,2012-07-01 23:47:00,
2012-07-01 17:52:00,85.3,41.0,29.53,SSW,201,2.0,3.0,21,0.00,,---,0.00,VWS V14.01,2012-07-01 23:52:00,
2012-07-01 17:57:00,85.0,39.5,29.54,SSW,199,0.0,4.0,20,0.00,,---,0.00,VWS V14.01,2012-07-01 23:57:00,
2012-07-01 18:02:00,85.2,40.9,29.53,SSW,200,5.0,9.0,21,0.00,,---,0.00,VWS V14.01,2012-07-02 00:02:00,
2012-07-01 18:07:00,85.5,39.9,29.51,SSW,198,7.0,10.0,20,0.00,,---,0.00,VWS V14.01,2012-07-02 00:07:00,
2012-07-01 18:12:00,85.6,41.2,29.50,SSW,198,2.0,6.0,21,0.00,,---,0.00,VWS V14.01,2012-07-02 00:12:00,
2012-07-01 18:17:00,85.4,39.8,29.51,SSW,199,0.0,1.0,20,0.00,,---,0.00,VWS V14.01,2012-07-02 00:17:00,
2012-07-01 18:22:00,85.6,40.0,29.51,SSW,199,4.0,5.0,20,0.00,,---,0.00,VWS V14.01,2012-07-02 00:22:00,
2012-07-01 18:28:00,85.2,39.7,29.51,SSW,199,1.0,1.0,20,0.00,,---,0.00,VWS V14.01,2012-07-02 00:28:00,
2012-07-01 18:33:00,84.9,39.4,29.51,SSW,199,0.0,1.0,20,0.00,,---,0.00,VWS V14.01,2012-07-02 00:33:00,
2012-07-01 18:38:00,84.5,39.1,29.51,SSW,199,5.0,5.0,20,0.00,,---,0.00,VWS V14.01,2012-07-02 00:38:00,
2012-07-01 18:43:00,84.3,38.9,29.53,SSW,199,0.0,2.0,20,0.00,,---,0.00,VWS V14.01,2012-07-02 00:43:00,
2012-07-01 18:48:00,84.8,39.3,29.51,SSW,199,1.0,4.0,20,0.00,,---,0.00,VWS V14.01,2012-07-02 00:48:00,
2012-07-01 18:53:00,85.1,39.6,29.50,SSW,199,0.0,4.0,20,0.00,,---,0.00,VWS V14.01,2012-07-02 00:53:00,
2012-07-01 18:58:00,84.9,41.9,29.50,SSW,200,8.0,8.0,22,0.00,,---,0.00,VWS V14.01,2012-07-02 00:58:00,
2012-07-01 19:03:00,83.9,43.3,29.52,SSW,199,8.0,8.0,24,0.00,,---,0.00,VWS V14.01,2012-07-02 01:03:00,
2012-07-01 19:08:00,83.0,41.4,29.45,SSW,199,1.0,8.0,23,0.00,,---,0.00,VWS V14.01,2012-07-02 01:08:00,
2012-07-01 19:13:00,82.4,40.9,29.46,SSW,200,5.0,9.0,23,0.00,,---,0.00,VWS V14.01,2012-07-02 01:13:00,
2012-07-01 19:18:00,81.7,40.3,29.46,SSW,200,1.0,1.0,23,0.00,,---,0.00,VWS V14.01,2012-07-02 01:18:00,
2012-07-01 19:23:00,80.9,40.8,29.46,SSW,200,4.0,8.0,24,0.00,,---,0.00,VWS V14.01,2012-07-02 01:23:00,
2012-07-01 19:28:00,80.4,40.3,29.47,SSW,200,5.0,5.0,24,0.00,,---,0.00,VWS V14.01,2012-07-02 01:28:00,
2012-07-01 19:33:00,80.2,39.1,29.49,SSW,200,2.0,5.0,23,0.00,,---,0.00,VWS V14.01,2012-07-02 01:33:00,
2012-07-01 19:38:00,80.0,40.0,29.50,SSW,200,5.0,7.0,24,0.00,,---,0.00,VWS V14.01,2012-07-02 01:38:00,
2012-07-01 19:43:00,79.6,40.7,29.49,SSW,202,10.0,10.0,25,0.00,,---,0.00,VWS V14.01,2012-07-02 01:43:00,
2012-07-01 19:48:00,79.2,42.4,29.50,SSW,202,5.0,8.0,27,0.00,,---,0.00,VWS V14.01,2012-07-02 01:48:00,
2012-07-01 19:53:00,78.3,42.5,29.51,SSW,202,5.0,7.0,28,0.00,,---,0.00,VWS V14.01,2012-07-02 01:53:00,
2012-07-01 19:58:00,78.0,41.3,29.51,SSW,202,7.0,10.0,27,0.00,,---,0.00,VWS V14.01,2012-07-02 01:58:00,
2012-07-01 20:03:00,78.2,41.5,29.51,SSW,199,4.0,11.0,27,0.00,,---,0.00,VWS V14.01,2012-07-02 02:03:00,
2012-07-01 20:08:00,77.8,42.1,29.49,SSW,200,0.0,6.0,28,0.00,,---,0.00,VWS V14.01,2012-07-02 02:08:00,
2012-07-01 20:13:00,77.5,41.9,29.48,South,175,2.0,7.0,28,0.00,,---,0.00,VWS V14.01,2012-07-02 02:13:00,
2012-07-01 20:18:00,77.1,43.3,29.48,SSE,167,0.0,2.0,30,0.00,,---,0.00,VWS V14.01,2012-07-02 02:18:00,
2012-07-01 20:23:00,76.6,43.7,29.49,South,171,4.0,10.0,31,0.00,,---,0.00,VWS V14.01,2012-07-02 02:23:00,
2012-07-01 20:28:00,76.1,43.3,29.51,South,176,0.0,4.0,31,0.00,,---,0.00,VWS V14.01,2012-07-02 02:28:00,
2012-07-01 20:33:00,75.8,43.9,29.51,South,176,1.0,3.0,32,0.00,,---,0.00,VWS V14.01,2012-07-02 02:33:00,
2012-07-01 20:38:00,75.5,44.4,29.51,South,178,1.0,2.0,33,0.00,,---,0.00,VWS V14.01,2012-07-02 02:38:00,
2012-07-01 20:43:00,75.3,44.2,29.52,South,178,0.0,2.0,33,0.00,,---,0.00,VWS V14.01,2012-07-02 02:43:00,
2012-07-01 20:48:00,75.1,44.8,29.52,South,178,2.0,3.0,34,0.00,,---,0.00,VWS V14.01,2012-07-02 02:48:00,
2012-07-01 20:53:00,74.8,43.8,29.52,South,178,2.0,2.0,33,0.00,,---,0.00,VWS V14.01,2012-07-02 02:53:00,
2012-07-01 20:58:00,74.4,45.0,29.53,South,178,4.0,4.0,35,0.00,,---,0.00,VWS V14.01,2012-07-02 02:58:00,
2012-07-01 21:03:00,74.1,44.7,29.49,South,178,2.0,5.0,35,0.00,,---,0.00,VWS V14.01,2012-07-02 03:03:00,
2012-07-01 21:08:00,73.9,44.5,29.50,South,178,0.0,2.0,35,0.00,,---,0.00,VWS V14.01,2012-07-02 03:08:00,
2012-07-01 21:13:00,73.6,44.3,29.50,South,178,5.0,6.0,35,0.00,,---,0.00,VWS V14.01,2012-07-02 03:13:00,
2012-07-01 21:18:00,73.2,44.7,29.50,South,178,0.0,2.0,36,0.00,,---,0.00,VWS V14.01,2012-07-02 03:18:00,
2012-07-01 21:23:00,72.8,44.3,29.50,South,178,0.0,0.0,36,0.00,,---,0.00,VWS V14.01,2012-07-02 03:23:00,
2012-07-01 21:28:00,72.4,44.0,29.51,South,178,0.0,2.0,36,0.00,,---,0.00,VWS V14.01,2012-07-02 03:28:00,
2012-07-01 21:33:00,72.1,44.4,29.53,South,178,1.0,1.0,37,0.00,,---,0.00,VWS V14.01,2012-07-02 03:33:00,
2012-07-01 21:38:00,71.8,44.2,29.53,South,178,0.0,1.0,37,0.00,,---,0.00,VWS V14.01,2012-07-02 03:38:00,
2012-07-01 21:43:00,71.4,43.8,29.53,South,178,0.0,0.0,37,0.00,,---,0.00,VWS V14.01,2012-07-02 03:43:00,
2012-07-01 21:49:00,71.1,42.8,29.54,South,178,0.0,0.0,36,0.00,,---,0.00,VWS V14.01,2012-07-02 03:49:00,
2012-07-01 21:53:00,70.8,43.3,29.54,South,178,0.0,0.0,37,0.00,,---,0.00,VWS V14.01,2012-07-02 03:53:00,
2012-07-01 21:58:00,70.6,42.4,29.54,South,178,0.0,0.0,36,0.00,,---,0.00,VWS V14.01,2012-07-02 03:58:00,
2012-07-01 22:00:00,70.6,42.4,29.54,South,178,1.0,2.0,36,0.00,,---,0.00,VWS V14.01,2012-07-02 04:00:00,
2012-07-01 22:05:00,70.4,43.6,29.51,South,178,0.0,4.0,38,0.00,,---,0.00,VWS V14.01,2012-07-02 04:05:00,
2012-07-01 22:10:00,69.8,43.8,29.50,South,178,0.0,0.0,39,0.00,,---,0.00,VWS V14.01,2012-07-02 04:10:00,
2012-07-01 22:15:00,69.3,44.0,29.52,South,178,1.0,1.0,40,0.00,,---,0.00,VWS V14.01,2012-07-02 04:15:00,
2012-07-01 22:20:00,68.6,44.6,29.52,South,178,4.0,5.0,42,0.00,,---,0.00,VWS V14.01,2012-07-02 04:20:00,
2012-07-01 22:25:00,67.5,44.2,29.52,South,178,0.0,5.0,43,0.00,,---,0.00,VWS V14.01,2012-07-02 04:25:00,
2012-07-01 22:30:00,66.9,44.3,29.54,South,178,1.0,1.0,44,0.00,,---,0.00,VWS V14.01,2012-07-02 04:30:00,
2012-07-01 22:35:00,66.8,43.6,29.55,South,178,0.0,2.0,43,0.00,,---,0.00,VWS V14.01,2012-07-02 04:35:00,
2012-07-01 22:40:00,67.2,43.4,29.55,South,178,0.0,2.0,42,0.00,,---,0.00,VWS V14.01,2012-07-02 04:40:00,
2012-07-01 22:45:00,67.9,43.4,29.53,South,178,0.0,0.0,41,0.00,,---,0.00,VWS V14.01,2012-07-02 04:45:00,